This is the latest recevied weather packets stored in our database for station/object SQ9PDE-13. If no packets are shown the sender has not sent any weather packets the latest 10 day(s).
| Time | Temp. | Humidity | Pressure | Rain* | Wind** | Luminosity | Snow |
|---|---|---|---|---|---|---|---|
| 1787583218 | 20° C | 47% | 1022.6 hPa | - | - | - | - |
| 1787582917 | 20° C | 47% | 1022.6 hPa | - | - | - | - |
| 1787582617 | 20.56° C | 47% | 1022.6 hPa | - | - | - | - |
| 1787582316 | 20.56° C | 46% | 1022.5 hPa | - | - | - | - |
| 1787582016 | 20.56° C | 48% | 1022.4 hPa | - | - | - | - |
| 1787581715 | 20° C | 47% | 1022.4 hPa | - | - | - | - |
| 1787581415 | 20.56° C | 47% | 1022.4 hPa | - | - | - | - |
| 1787581114 | 20.56° C | 46% | 1022.4 hPa | - | - | - | - |
| 1787580814 | 20.56° C | 45% | 1022.4 hPa | - | - | - | - |
| 1787580513 | 21.11° C | 46% | 1022.3 hPa | - | - | - | - |
| 1787580213 | 20.56° C | 46% | 1022.4 hPa | - | - | - | - |
| 1787579912 | 20.56° C | 46% | 1022.4 hPa | - | - | - | - |
| 1787579612 | 20.56° C | 46% | 1022.5 hPa | - | - | - | - |
| 1787579311 | 20.56° C | 45% | 1022.6 hPa | - | - | - | - |
| 1787579011 | 20.56° C | 44% | 1022.5 hPa | - | - | - | - |
| 1787578998 | 21.67° C | 43% | 1022.3 hPa | - | - | - | - |
| 1787578410 | 21.67° C | 41% | 1022.3 hPa | - | - | - | - |
| 1787578109 | 21.11° C | 41% | 1022.4 hPa | - | - | - | - |
| 1787577808 | 21.67° C | 44% | 1022.3 hPa | - | - | - | - |
| 1787577508 | 21.67° C | 44% | 1022.4 hPa | - | - | - | - |
| 1787577207 | 20.56° C | 45% | 1022.5 hPa | - | - | - | - |
| 1787576907 | 21.11° C | 43% | 1022.5 hPa | - | - | - | - |
| 1787576606 | 21.11° C | 44% | 1022.4 hPa | - | - | - | - |
| 1787576306 | 22.22° C | 39% | 1022.3 hPa | - | - | - | - |
| 1787576005 | 21.67° C | 43% | 1022.4 hPa | - | - | - | - |
* Rain since midnight (hover to see other rain measurements)
** Current wind speed in m/s (hover to see current wind gust speed)